Regional Weather Roundup
Issued by NWS

Home | Current Version | Previous Version | Graphics & Text | Print | Product List | Glossary On
Versions: 1 2 3 4 5 6 7 8 9 10 11 12 13 14 15 16 17 18 19 20 21 22 23 24 25 26 27 28 29 30 31 32 33 34 35 36 37 38 39 40 41 42 43 44 45 46 47 48 49 50
293
ASUS43 KBIS 272310
RWRND

NORTH DAKOTA REGIONAL WEATHER ROUNDUP
NATIONAL WEATHER SERVICE BISMARCK ND
600 PM CDT THU JUL 27 2017

NOTE: "FAIR" INDICATES FEW OR NO CLOUDS BELOW 12,000 FEET WITH NO
SIGNIFICANT WEATHER AND/OR OBSTRUCTIONS TO VISIBILITY.


NDZ001>003-009>011-017-280000-
NORTHWEST NORTH DAKOTA

CITY           SKY/WX    TMP DP  RH WIND       PRES   REMARKS
WILLISTON      CLOUDY    76  65  68 E12       30.00F
MINOT          PTSUNNY   85  56  37 SE8       30.04F
MINOT AFB      CLOUDY    83  57  40 SE7G16    30.02F
$$

NDZ018>021-031>035-040>046-280000-
SOUTHWEST NORTH DAKOTA

CITY           SKY/WX    TMP DP  RH WIND       PRES   REMARKS
BISMARCK       CLOUDY    82  59  45 NE9       30.06F
DICKINSON      LGT RAIN  70  62  76 NW7       30.06R
GARRISON         N/A     74  59  59 SE14      30.05F
HETTINGER ARPT CLOUDY    73  56  54 S9        30.07F
$$

NDZ004>008-012>016-024-026-027-054-280000-
NORTHEAST NORTH DAKOTA

CITY           SKY/WX    TMP DP  RH WIND       PRES   REMARKS
GRAND FORKS    CLOUDY    86  59  39 CALM      30.06R
GRND FRKS AFB  MOSUNNY   84  55  37 CALM      30.07S
DEVILS LAKE    SUNNY     81  53  37 S10       30.09F
$$

NDZ022-023-025-028>030-036>039-047>053-280000-
SOUTHEAST NORTH DAKOTA

CITY           SKY/WX    TMP DP  RH WIND       PRES   REMARKS
FARGO          SUNNY     84  56  38 NE7       30.06S
JAMESTOWN      CLOUDY    80  59  48 E5        30.08F
$$





USA.gov is the U.S. government's official web portal to all federal, state and local government web resources and services.